Time,TemperatureF,DewpointF,PressureIn,WindDirection,WindDirectionDegrees,WindSpeedMPH,WindSpeedGustMPH,Humidity,HourlyPrecipIn,Conditions,Clouds,dailyrainin,SolarRadiationWatts/m^2,SoftwareType,DateUTC
2013-03-31 00:13:00,50.8,47.0,30.03,SSW,204,0.0,0.0,87,0.06,,,0.03,0,weatherlink.com 1.10,2013-03-31 04:13:00,
2013-03-31 00:28:00,50.8,47.0,30.02,SSW,204,0.0,0.0,87,0.08,,,0.06,0,weatherlink.com 1.10,2013-03-31 04:28:00,
2013-03-31 00:43:00,50.7,47.0,30.01,SSW,204,0.0,0.0,88,0.11,,,0.10,0,weatherlink.com 1.10,2013-03-31 04:43:00,
2013-03-31 00:58:00,50.7,48.0,30.00,SSW,204,0.0,0.0,89,0.15,,,0.15,0,weatherlink.com 1.10,2013-03-31 04:58:00,
2013-03-31 01:13:00,50.5,47.0,30.00,SSW,204,0.0,0.0,89,0.14,,,0.17,0,weatherlink.com 1.10,2013-03-31 05:13:00,
2013-03-31 01:28:00,50.5,48.0,30.00,SSW,204,0.0,0.0,90,0.15,,,0.21,0,weatherlink.com 1.10,2013-03-31 05:28:00,
2013-03-31 01:43:00,50.5,48.0,29.98,SSW,204,0.0,0.0,90,0.14,,,0.25,0,weatherlink.com 1.10,2013-03-31 05:43:00,
2013-03-31 01:58:00,50.5,48.0,29.98,SSW,204,0.0,0.0,91,0.11,,,0.26,0,weatherlink.com 1.10,2013-03-31 05:58:00,
2013-03-31 02:13:00,50.5,48.0,29.97,SSW,204,0.0,0.0,91,0.10,,,0.27,0,weatherlink.com 1.10,2013-03-31 06:13:00,
2013-03-31 02:28:00,50.4,48.0,29.96,SSW,204,0.0,0.0,91,0.08,,,0.29,0,weatherlink.com 1.10,2013-03-31 06:28:00,
2013-03-31 02:43:00,50.4,48.0,29.96,SSW,204,0.0,0.0,92,0.06,,,0.31,0,weatherlink.com 1.10,2013-03-31 06:43:00,
2013-03-31 02:58:00,50.5,48.0,29.95,SSW,204,0.0,0.0,92,0.07,,,0.33,0,weatherlink.com 1.10,2013-03-31 06:58:00,
2013-03-31 03:13:00,50.5,49.0,29.94,SSW,204,0.0,0.0,93,0.05,,,0.33,0,weatherlink.com 1.10,2013-03-31 07:13:00,
2013-03-31 03:28:00,50.5,49.0,29.93,SSW,204,0.0,0.0,93,0.06,,,0.35,0,weatherlink.com 1.10,2013-03-31 07:28:00,
2013-03-31 03:44:00,50.5,49.0,29.93,SSW,204,0.0,0.0,93,0.06,,,0.37,0,weatherlink.com 1.10,2013-03-31 07:44:00,
2013-03-31 03:59:00,50.5,49.0,29.93,SSW,204,0.0,0.0,93,0.07,,,0.40,0,weatherlink.com 1.10,2013-03-31 07:59:00,
2013-03-31 04:14:00,50.5,49.0,29.92,SSW,204,0.0,0.0,93,0.09,,,0.42,0,weatherlink.com 1.10,2013-03-31 08:14:00,
2013-03-31 04:29:00,50.7,49.0,29.92,SSW,204,0.0,0.0,94,0.08,,,0.43,0,weatherlink.com 1.10,2013-03-31 08:29:00,
2013-03-31 04:44:00,50.7,49.0,29.91,SSW,204,0.0,0.0,94,0.06,,,0.43,0,weatherlink.com 1.10,2013-03-31 08:44:00,
2013-03-31 04:59:00,50.7,49.0,29.91,SSW,204,0.0,1.0,94,0.02,,,0.43,0,weatherlink.com 1.10,2013-03-31 08:59:00,
2013-03-31 05:14:00,51.0,50.0,29.91,SSW,204,1.0,3.0,95,0.01,,,0.43,0,weatherlink.com 1.10,2013-03-31 09:14:00,
2013-03-31 05:29:00,51.3,50.0,29.91,SW,215,0.0,4.0,95,0.00,,,0.43,0,weatherlink.com 1.10,2013-03-31 09:29:00,
2013-03-31 05:44:00,51.7,51.0,29.90,SW,219,0.0,4.0,96,0.00,,,0.43,0,weatherlink.com 1.10,2013-03-31 09:44:00,
2013-03-31 05:59:00,52.3,52.0,29.90,SSW,213,0.0,3.0,97,0.00,,,0.43,0,weatherlink.com 1.10,2013-03-31 09:59:00,
2013-03-31 06:14:00,52.6,52.0,29.90,SW,215,0.0,7.0,97,0.00,,,0.43,0,weatherlink.com 1.10,2013-03-31 10:14:00,
2013-03-31 06:29:00,52.9,52.0,29.90,South,180,0.0,2.0,97,0.00,,,0.43,0,weatherlink.com 1.10,2013-03-31 10:29:00,
2013-03-31 06:44:00,53.2,53.0,29.90,SSW,194,4.0,7.0,98,0.00,,,0.43,0,weatherlink.com 1.10,2013-03-31 10:44:00,
2013-03-31 06:59:00,53.2,53.0,29.90,SW,230,0.0,6.0,98,0.00,,,0.43,0,weatherlink.com 1.10,2013-03-31 10:59:00,
2013-03-31 07:14:00,53.3,53.0,29.91,SW,232,1.0,6.0,98,0.00,,,0.43,0,weatherlink.com 1.10,2013-03-31 11:14:00,
2013-03-31 07:29:00,53.5,53.0,29.90,SW,225,0.0,6.0,98,0.00,,,0.43,0,weatherlink.com 1.10,2013-03-31 11:29:00,
2013-03-31 07:44:00,53.5,53.0,29.91,SSW,206,0.0,5.0,98,0.00,,,0.43,9,weatherlink.com 1.10,2013-03-31 11:44:00,
2013-03-31 07:59:00,53.5,53.0,29.92,SSW,208,1.0,3.0,98,0.00,,,0.43,23,weatherlink.com 1.10,2013-03-31 11:59:00,
2013-03-31 08:14:00,53.6,53.0,29.92,WSW,240,0.0,3.0,98,0.00,,,0.43,44,weatherlink.com 1.10,2013-03-31 12:14:00,
2013-03-31 08:29:00,53.8,53.0,29.92,SW,227,0.0,3.0,98,0.00,,,0.43,32,weatherlink.com 1.10,2013-03-31 12:29:00,
2013-03-31 08:44:00,53.9,53.0,29.93,West,272,0.0,3.0,98,0.00,,,0.43,21,weatherlink.com 1.10,2013-03-31 12:44:00,
2013-03-31 08:59:00,54.1,54.0,29.93,South,191,0.0,5.0,98,0.00,,,0.43,49,weatherlink.com 1.10,2013-03-31 12:59:00,
2013-03-31 09:14:00,54.2,54.0,29.93,NW,304,0.0,5.0,99,0.00,,,0.43,63,weatherlink.com 1.10,2013-03-31 13:14:00,
2013-03-31 09:29:00,54.4,54.0,29.93,SSW,199,3.0,6.0,98,0.00,,,0.43,69,weatherlink.com 1.10,2013-03-31 13:29:00,
2013-03-31 09:44:00,54.5,54.0,29.93,SSW,209,0.0,10.0,99,0.00,,,0.43,44,weatherlink.com 1.10,2013-03-31 13:44:00,
2013-03-31 09:59:00,55.1,55.0,29.93,NW,314,0.0,6.0,99,0.00,,,0.43,199,weatherlink.com 1.10,2013-03-31 13:59:00,
2013-03-31 10:14:00,55.1,55.0,29.94,South,169,2.0,5.0,99,0.00,,,0.43,53,weatherlink.com 1.10,2013-03-31 14:14:00,
2013-03-31 10:29:00,55.3,55.0,29.93,WSW,253,2.0,4.0,99,0.00,,,0.43,181,weatherlink.com 1.10,2013-03-31 14:29:00,
2013-03-31 10:44:00,56.3,56.0,29.92,WSW,252,0.0,5.0,99,0.00,,,0.43,329,weatherlink.com 1.10,2013-03-31 14:44:00,
2013-03-31 10:59:00,57.5,57.0,29.92,SSW,199,0.0,6.0,98,0.00,,,0.43,346,weatherlink.com 1.10,2013-03-31 14:59:00,
2013-03-31 11:14:00,56.5,56.0,29.92,WSW,240,0.0,12.0,97,0.00,,,0.43,107,weatherlink.com 1.10,2013-03-31 15:14:00,
2013-03-31 11:29:00,56.2,55.0,29.92,West,279,2.0,6.0,97,0.00,,,0.43,190,weatherlink.com 1.10,2013-03-31 15:29:00,
2013-03-31 11:44:00,57.5,56.0,29.92,NNE,23,0.0,7.0,96,0.00,,,0.43,483,weatherlink.com 1.10,2013-03-31 15:44:00,
2013-03-31 11:59:00,57.8,56.0,29.92,SW,217,3.0,9.0,92,0.00,,,0.43,97,weatherlink.com 1.10,2013-03-31 15:59:00,
2013-03-31 12:14:00,57.0,54.0,29.92,West,277,1.0,5.0,90,0.00,,,0.43,257,weatherlink.com 1.10,2013-03-31 16:14:00,
2013-03-31 12:29:00,58.4,56.0,29.91,WSW,242,1.0,5.0,90,0.00,,,0.43,329,weatherlink.com 1.10,2013-03-31 16:29:00,
2013-03-31 12:44:00,58.4,54.0,29.91,SW,221,1.0,7.0,85,0.00,,,0.43,109,weatherlink.com 1.10,2013-03-31 16:44:00,
2013-03-31 12:59:00,58.0,54.0,29.91,WSW,238,0.0,3.0,85,0.00,,,0.43,42,weatherlink.com 1.10,2013-03-31 16:59:00,
2013-03-31 13:14:00,57.6,53.0,29.92,NW,322,1.0,5.0,84,0.00,,,0.43,86,weatherlink.com 1.10,2013-03-31 17:14:00,
2013-03-31 13:29:00,57.6,53.0,29.91,WSW,252,0.0,3.0,84,0.00,,,0.43,130,weatherlink.com 1.10,2013-03-31 17:29:00,
2013-03-31 13:44:00,57.8,53.0,29.91,West,277,0.0,7.0,84,0.00,,,0.43,146,weatherlink.com 1.10,2013-03-31 17:44:00,
2013-03-31 13:59:00,59.9,53.0,29.90,South,189,12.0,12.0,79,0.00,,,0.43,251,weatherlink.com 1.10,2013-03-31 17:59:00,
2013-03-31 14:14:00,60.4,53.0,29.90,South,174,1.0,8.0,76,0.00,,,0.43,163,weatherlink.com 1.10,2013-03-31 18:14:00,
2013-03-31 14:29:00,61.3,54.0,29.89,SSW,210,0.0,5.0,76,0.00,,,0.43,350,weatherlink.com 1.10,2013-03-31 18:29:00,
2013-03-31 14:44:00,61.5,53.0,29.89,NW,309,0.0,4.0,74,0.00,,,0.43,62,weatherlink.com 1.10,2013-03-31 18:44:00,
2013-03-31 15:00:00,60.9,53.0,29.89,NNW,339,0.0,3.0,75,0.00,,,0.43,16,weatherlink.com 1.10,2013-03-31 19:00:00,
2013-03-31 15:15:00,60.1,53.0,29.89,West,269,0.0,3.0,78,0.03,,,0.46,28,weatherlink.com 1.10,2013-03-31 19:15:00,
2013-03-31 15:30:00,59.3,54.0,29.89,SSW,195,0.0,3.0,82,0.05,,,0.48,62,weatherlink.com 1.10,2013-03-31 19:30:00,
2013-03-31 15:45:00,58.7,54.0,29.89,SSW,195,0.0,2.0,84,0.09,,,0.52,60,weatherlink.com 1.10,2013-03-31 19:45:00,
2013-03-31 16:00:00,58.1,54.0,29.89,SSW,195,0.0,1.0,86,0.14,,,0.57,60,weatherlink.com 1.10,2013-03-31 20:00:00,
2013-03-31 16:15:00,57.5,54.0,29.88,SW,216,0.0,1.0,88,0.13,,,0.59,65,weatherlink.com 1.10,2013-03-31 20:15:00,
2013-03-31 16:30:00,57.3,55.0,29.87,SW,216,0.0,1.0,90,0.10,,,0.59,179,weatherlink.com 1.10,2013-03-31 20:30:00,
2013-03-31 16:45:00,57.3,55.0,29.88,SW,216,0.0,1.0,93,0.07,,,0.59,118,weatherlink.com 1.10,2013-03-31 20:45:00,
2013-03-31 17:00:00,57.3,56.0,29.88,NW,307,0.0,2.0,94,0.02,,,0.59,84,weatherlink.com 1.10,2013-03-31 21:00:00,
2013-03-31 17:15:00,57.6,56.0,29.88,NW,307,0.0,0.0,95,0.00,,,0.59,153,weatherlink.com 1.10,2013-03-31 21:15:00,
2013-03-31 17:30:00,57.8,56.0,29.88,NW,307,0.0,1.0,95,0.00,,,0.59,32,weatherlink.com 1.10,2013-03-31 21:30:00,
2013-03-31 17:45:00,57.6,56.0,29.87,NW,307,0.0,0.0,95,0.00,,,0.59,23,weatherlink.com 1.10,2013-03-31 21:45:00,
2013-03-31 18:00:00,57.3,56.0,29.87,NW,307,0.0,0.0,95,0.06,,,0.65,19,weatherlink.com 1.10,2013-03-31 22:00:00,
2013-03-31 18:15:00,57.2,56.0,29.87,NW,307,0.0,0.0,95,0.13,,,0.72,19,weatherlink.com 1.10,2013-03-31 22:15:00,
2013-03-31 18:30:00,56.9,56.0,29.87,NW,307,0.0,0.0,95,0.18,,,0.77,28,weatherlink.com 1.10,2013-03-31 22:30:00,
2013-03-31 18:45:00,56.7,55.0,29.87,NW,307,0.0,1.0,95,0.18,,,0.77,40,weatherlink.com 1.10,2013-03-31 22:45:00,
2013-03-31 19:00:00,56.7,55.0,29.86,NW,307,0.0,0.0,95,0.12,,,0.77,11,weatherlink.com 1.10,2013-03-31 23:00:00,
2013-03-31 19:15:00,56.6,55.0,29.86,NW,307,0.0,0.0,95,0.05,,,0.77,5,weatherlink.com 1.10,2013-03-31 23:15:00,
2013-03-31 19:30:00,56.3,55.0,29.87,NW,307,0.0,0.0,95,0.00,,,0.77,0,weatherlink.com 1.10,2013-03-31 23:30:00,
2013-03-31 19:45:00,56.0,55.0,29.87,NW,307,0.0,0.0,95,0.00,,,0.77,0,weatherlink.com 1.10,2013-03-31 23:45:00,
2013-03-31 20:00:00,55.7,54.0,29.87,NW,307,0.0,0.0,95,0.00,,,0.77,0,weatherlink.com 1.10,2013-04-01 00:00:00,
2013-03-31 20:15:00,55.4,54.0,29.87,NW,307,0.0,0.0,95,0.00,,,0.77,0,weatherlink.com 1.10,2013-04-01 00:15:00,
2013-03-31 20:30:00,55.3,54.0,29.87,NW,307,0.0,0.0,95,0.00,,,0.77,0,weatherlink.com 1.10,2013-04-01 00:30:00,
2013-03-31 20:45:00,55.1,54.0,29.87,NW,307,0.0,0.0,95,0.00,,,0.77,0,weatherlink.com 1.10,2013-04-01 00:45:00,
2013-03-31 21:00:00,54.8,53.0,29.88,NW,307,0.0,0.0,95,0.00,,,0.77,0,weatherlink.com 1.10,2013-04-01 01:00:00,
2013-03-31 21:15:00,54.7,53.0,29.89,NW,307,0.0,0.0,95,0.00,,,0.77,0,weatherlink.com 1.10,2013-04-01 01:15:00,
2013-03-31 21:30:00,54.5,53.0,29.89,NW,307,0.0,0.0,95,0.02,,,0.79,0,weatherlink.com 1.10,2013-04-01 01:30:00,
2013-03-31 21:45:00,54.4,53.0,29.89,NW,307,0.0,0.0,95,0.02,,,0.79,0,weatherlink.com 1.10,2013-04-01 01:45:00,
2013-03-31 22:00:00,54.2,53.0,29.89,NW,307,0.0,1.0,95,0.02,,,0.79,0,weatherlink.com 1.10,2013-04-01 02:00:00,
2013-03-31 22:15:00,54.1,53.0,29.90,NW,307,0.0,0.0,95,0.02,,,0.79,0,weatherlink.com 1.10,2013-04-01 02:15:00,
2013-03-31 22:30:00,53.6,52.0,29.90,NW,307,0.0,0.0,95,0.00,,,0.79,0,weatherlink.com 1.10,2013-04-01 02:30:00,
2013-03-31 22:45:00,53.3,52.0,29.91,NW,307,0.0,0.0,95,0.00,,,0.79,0,weatherlink.com 1.10,2013-04-01 02:45:00,
2013-03-31 23:00:00,52.9,52.0,29.91,NW,307,0.0,0.0,95,0.00,,,0.79,0,weatherlink.com 1.10,2013-04-01 03:00:00,
2013-03-31 23:15:00,52.6,51.0,29.91,NW,307,0.0,0.0,95,0.00,,,0.79,0,weatherlink.com 1.10,2013-04-01 03:15:00,
2013-03-31 23:30:00,52.3,51.0,29.92,NW,307,0.0,0.0,95,0.00,,,0.79,0,weatherlink.com 1.10,2013-04-01 03:30:00,
2013-03-31 23:45:00,51.7,50.0,29.92,NW,307,0.0,0.0,95,0.00,,,0.79,0,weatherlink.com 1.10,2013-04-01 03:45:00,